Theta_e
315 315 315 315 315 316 315 315 316 315 315 315 315 315 315 315 315 315 315 314 314 314 313 313 313 313 313 314 315 316 317 318 319 320 320 320 320 320 320 319 319 319
315 315 315 315 315 315 315 315 315 315 315 315 315 315 315 315 314 314 314 314 314 313 313 313 313 313 312 312 313 313 314 315 316 317 317 317 317 318 318 318 318 318
315 315 315 315 315 315 315 315 315 315 315 315 315 315 315 315 314 314 314 313 314 313 313 313 313 312 312 312 312 312 312 312 313 313 314 314 314 315 315 315 314 314
314 315 315 315 315 315 315 315 315 315 315 315 315 315 315 314 314 314 314 314 314 313 313 313 312 312 312 312 312 312 312 312 312 312 312 312 312 312 312 312 311 311
315 315 315 315 315 315 315 315 315 315 315 315 315 314 314 314 314 314 314 314 314 314 313 313 313 312 311 311 311 311 311 311 311 311 311 311 311 311 311 311 310 310
315 315 315 315 315 315 315 315 315 314 314 314 314 314 314 314 314 314 314 313 313 313 313 313 313 312 312 311 311 310 310 310 310 311 311 311 311 310 310 310 310 310
314 314 315 314 314 314 314 314 314 314 314 314 314 314 313 313 313 313 313 313 313 313 313 313 313 313 312 312 311 311 310 310 310 310 310 310 310 310 310 310 310 310
314 314 314 314 314 314 314 313 314 314 313 313 313 312 312 312 312 311 311 311 311 311 311 311 311 311 311 311 311 311 310 310 310 310 310 310 309 309 309 309 309 309
314 314 314 314 313 313 313 313 312 312 312 311 311 311 311 311 311 310 310 310 310 310 310 310 310 310 310 310 309 309 309 309 309 309 309 309 309 309 309 309 309 309
314 314 313 313 312 312 312 311 311 311 311 311 310 310 310 310 310 310 310 310 310 310 310 309 309 309 309 309 309 309 308 308 308 308 307 307 307 307 306 306 306 306
313 313 312 312 311 311 311 311 311 310 310 310 310 310 310 310 310 310 310 310 310 310 309 309 309 308 308 307 306 305 305 304 304 303 303 303 302 302 302 302 302 302
313 312 311 311 311 311 310 310 310 310 310 310 310 310 310 310 310 310 309 309 308 308 307 306 305 304 304 303 302 302 301 301 301 301 300 300 300 300 300 299 299 299
312 311 311 311 310 310 310 310 310 310 310 310 310 310 309 309 309 308 307 306 305 304 303 302 301 301 301 301 300 300 300 300 300 299 299 299 298 298 298 298 297 297
311 311 310 310 310 310 310 310 310 310 310 309 309 308 307 306 305 304 303 302 301 301 301 301 300 300 300 300 299 299 298 298 298 297 297 297 297 297 297 297 296 296
310 310 310 310 310 310 310 310 309 309 308 307 306 305 303 303 302 301 301 301 301 300 300 300 299 298 298 297 297 297 297 297 296 296 296 296 296 296 296 296 296 296
310 310 310 310 310 309 309 308 307 306 304 303 302 301 301 301 301 300 300 300 300 299 299 298 297 297 296 296 296 296 296 296 296 296 296 296 296 296 296 296 296 295
309 309 309 309 308 308 306 304 303 302 301 300 300 300 300 300 300 300 300 299 299 298 297 297 296 296 296 296 296 295 295 295 295 295 295 295 295 295 295 295 295 295
309 309 309 308 306 304 302 301 300 300 300 300 300 300 300 300 300 299 299 298 297 297 296 296 296 296 295 295 295 295 295 295 295 295 295 295 295 294 295 294 294 294
308 307 306 304 302 301 300 300 300 300 300 300 300 300 300 299 298 298 297 296 296 296 296 295 295 295 295 295 295 294 295 294 294 294 294 294 294 294 294 294 293 293
306 304 302 301 299 299 299 300 300 300 300 300 300 299 298 298 297 296 296 296 296 296 295 295 295 295 295 295 294 294 294 294 294 294 294 294 294 293 293 293 293 293
303 301 299 299 299 299 299 300 300 300 300 299 299 298 297 297 296 296 296 296 296 295 295 295 295 295 295 294 294 294 294 294 294 294 294 293 293 293 293 293 292 292
300 299 299 299 299 299 300 300 300 300 299 298 297 297 296 296 296 296 296 296 296 296 295 295 295 294 294 294 294 294 294 294 294 293 293 293 293 293 293 293 292 292
299 299 299 299 300 300 300 300 300 298 297 297 297 296 296 296 296 296 296 296 295 295 295 295 294 294 294 294 294 294 294 293 293 293 293 293 293 293 293 293 292 292
299 299 299 300 300 300 299 299 297 297 296 296 296 296 296 296 296 296 295 295 295 295 294 295 294 294 294 294 293 293 293 293 293 293 293 293 293 293 293 292 292 292
299 299 300 300 299 298 298 297 296 296 296 296 296 296 296 295 295 295 295 295 294 294 294 294 294 293 293 293 293 293 292 292 292 292 292 292 292 292 292 292 292 292
299 299 299 298 297 297 297 297 296 296 296 296 296 295 295 295 295 295 294 294 294 294 294 293 293 293 293 292 292 292 292 291 291 291 290 291 291 291 291 291 291 291
Wind_Speed
6 5 4 4 3 3 4 4 5 7 8 9 10 11 12 13 15 16 17 17 17 17 18 20 21 23 25 26 27 29 29 30 31 31 31 33 34 34 35 35 35 36
8 7 6 5 4 3 4 5 6 8 9 10 12 13 14 15 16 18 19 20 20 20 20 20 20 21 23 25 26 27 28 29 30 31 32 33 34 35 36 36 37 38
8 6 4 3 3 3 4 5 7 8 10 11 13 14 15 16 17 17 18 19 20 21 21 21 21 22 22 23 24 25 26 27 28 29 30 31 32 33 34 34 35 35
6 4 3 2 2 3 5 6 8 9 11 12 14 15 16 17 17 18 18 19 19 19 20 20 21 21 23 24 25 26 26 26 27 27 28 29 29 31 31 32 32 32
4 2 1 1 3 4 6 8 9 11 12 14 15 16 17 17 18 19 19 19 19 19 19 19 19 19 20 22 24 26 26 27 27 28 28 28 28 29 30 30 30 30
1 1 2 4 5 7 8 10 11 13 14 15 16 16 17 17 18 19 18 18 18 18 18 18 18 18 18 19 20 22 23 25 26 27 28 28 28 29 29 30 30 30
2 3 5 6 8 9 10 11 12 13 14 15 15 15 15 16 16 16 16 16 16 16 16 16 17 17 17 18 18 19 19 20 22 24 25 27 27 28 28 29 30 30
4 5 7 8 9 9 10 11 12 13 13 13 13 13 12 12 13 14 14 14 14 14 14 15 15 16 16 17 17 18 18 19 19 21 22 23 24 24 25 26 27 28
5 6 7 8 8 9 9 9 10 10 10 10 10 10 10 11 11 12 12 13 13 14 14 14 15 15 16 16 17 18 18 19 19 20 21 22 22 23 23 23 24 24
6 7 7 8 8 7 7 7 7 7 7 7 7 8 9 10 10 11 12 12 13 13 14 14 15 15 16 16 17 18 19 19 19 20 20 21 22 22 23 23 24 25
7 7 7 7 6 5 4 4 4 5 5 6 7 8 9 9 10 11 11 12 13 13 14 15 15 16 17 17 18 18 19 19 20 20 21 21 22 22 23 24 25 25
7 6 5 4 3 3 2 2 3 4 5 6 7 8 9 9 10 11 12 12 13 14 15 15 16 17 17 18 19 19 20 21 21 22 22 23 24 24 25 25 26 27
5 4 3 3 3 2 2 2 3 4 5 6 7 8 9 9 10 11 12 13 13 14 15 15 16 17 18 19 20 21 22 23 24 25 25 26 26 27 27 28 29 30
5 4 4 4 3 2 2 2 3 4 5 6 6 7 8 9 9 10 11 11 12 13 14 16 17 19 20 21 22 23 24 24 25 26 26 27 28 28 29 29 31 31
7 6 6 4 3 2 2 2 3 3 4 4 5 6 7 7 8 9 10 11 12 14 15 17 18 19 20 21 22 23 23 24 25 25 27 28 28 29 29 30 31 32
8 7 6 5 3 2 2 1 1 1 2 3 4 5 6 7 8 10 11 12 14 15 16 17 18 19 20 21 22 23 24 25 26 27 28 29 31 32 33 33 33 34
9 7 6 5 3 3 2 2 1 1 1 2 3 5 7 9 11 12 14 15 16 17 18 18 19 21 21 22 24 25 27 28 29 30 31 31 33 35 36 37 37 37
9 7 6 5 4 4 4 3 2 1 2 4 6 8 10 12 14 15 17 18 18 19 19 20 21 22 23 24 26 27 29 31 32 33 34 34 35 36 38 39 40 40
8 7 6 6 5 4 4 2 1 3 5 8 10 12 13 15 16 17 18 19 20 20 21 21 22 23 24 26 27 28 30 32 33 35 36 37 37 38 39 40 41 41
8 7 7 6 5 3 2 2 4 6 8 10 12 14 15 16 17 18 19 20 21 22 22 22 23 24 25 27 28 29 31 33 35 36 37 38 39 39 40 41 42 42
8 8 7 5 3 2 3 5 7 9 11 12 14 15 16 17 18 18 19 20 22 23 24 25 25 26 28 29 30 32 33 35 36 38 39 40 41 41 42 42 43 43
9 7 6 4 2 3 5 7 9 11 12 13 14 15 16 17 19 20 21 23 24 26 28 29 29 30 31 33 34 35 37 38 39 41 42 43 44 44 45 45 46 46
8 6 5 4 4 5 7 9 10 12 13 14 15 16 18 19 21 23 25 26 28 29 31 32 33 33 34 36 37 38 40 41 42 43 45 46 46 47 48 49 49 48
8 6 5 5 6 7 9 10 11 13 14 16 17 19 21 22 24 26 27 28 30 31 33 34 35 35 36 37 38 39 40 41 42 44 45 46 47 48 49 50 50 50
7 6 5 6 7 8 10 11 13 14 16 18 20 22 23 25 26 28 29 29 31 32 33 34 35 35 35 36 36 37 39 40 41 43 44 46 47 49 50 50 51 51
7 6 6 7 8 10 11 13 15 17 19 21 22 24 25 26 28 29 30 30 31 31 32 32 33 34 34 35 35 36 38 39 41 43 45 47 48 49 51 52 52 53
Wind_Direction
151 139 122 104 81 52 24 3 351 342 335 330 327 325 322 319 318 317 317 315 311 305 300 296 292 289 287 285 283 281 278 275 274 274 275 276 278 280 281 282 283 283
122 114 103 88 63 33 4 347 337 329 325 323 320 320 320 319 319 318 317 317 317 315 312 307 302 296 291 289 288 287 285 282 279 277 276 276 277 278 279 280 281 281
114 103 90 68 33 5 343 332 325 321 319 318 317 317 317 317 317 316 316 317 318 318 318 316 313 309 304 299 296 294 292 290 288 285 283 283 282 281 281 281 282 282
113 103 87 55 3 338 328 323 318 316 314 313 312 312 313 314 315 317 318 319 320 321 320 318 315 313 310 308 306 304 302 299 296 293 291 290 290 288 288 287 287 286
109 95 59 1 333 323 319 316 314 312 310 309 310 310 311 313 315 318 319 320 322 322 322 321 317 313 309 306 306 306 306 305 304 302 300 300 298 297 296 295 295 294
80 12 339 327 322 318 314 313 310 308 306 306 308 309 312 314 315 318 321 323 324 325 325 325 324 321 316 311 309 308 308 307 307 306 305 306 305 303 302 302 302 302
333 328 324 317 314 309 307 305 301 299 300 302 306 310 315 319 321 324 327 330 332 333 333 332 331 330 328 326 324 321 318 315 312 311 309 310 309 309 310 309 309 309
317 318 312 305 301 296 295 295 292 294 298 301 308 315 323 329 332 335 339 342 343 343 343 342 340 340 339 338 337 335 333 331 328 325 323 323 323 323 323 321 318 317
307 304 296 290 286 283 286 288 289 295 301 309 320 328 337 344 345 346 349 351 352 352 351 351 349 349 348 346 345 344 344 345 343 341 340 339 339 339 337 334 331 330
296 289 282 277 274 275 283 288 294 306 317 329 341 347 351 353 351 351 353 353 354 354 353 353 352 352 352 351 350 350 350 351 350 349 348 347 346 345 344 341 339 338
280 273 267 265 267 275 289 300 315 333 344 350 354 356 354 352 350 350 352 353 354 354 354 354 353 353 354 353 352 351 351 351 350 348 347 346 344 343 341 339 337 335
266 263 260 266 277 289 309 330 342 347 351 351 352 353 351 349 349 351 352 354 355 356 357 356 355 353 352 351 349 347 346 345 343 342 340 338 337 335 334 332 330 329
263 262 262 265 271 281 313 332 338 339 342 345 348 351 350 351 353 354 356 358 358 359 358 355 352 349 346 344 341 339 337 336 335 334 333 331 331 330 329 328 327 326
246 239 234 232 236 252 294 316 325 331 337 343 347 349 351 354 356 357 358 358 356 354 352 348 344 340 338 336 333 332 330 330 329 329 328 327 327 327 327 326 325 324
225 219 216 214 220 244 278 303 320 330 340 345 348 351 353 355 354 353 351 348 346 344 341 339 336 334 333 331 329 328 327 327 327 327 326 326 325 325 324 324 324 323
213 206 202 204 210 224 240 270 299 326 345 344 346 348 348 348 344 342 340 338 338 338 337 336 334 331 331 331 329 329 327 327 327 327 326 326 325 324 323 323 323 322
202 197 197 200 203 204 205 207 215 237 318 331 339 339 338 338 338 336 336 336 336 337 337 336 334 332 332 332 331 330 328 328 327 327 327 326 325 324 323 323 322 321
199 199 201 202 199 195 194 196 206 251 321 331 334 335 336 337 337 336 336 336 336 337 338 338 336 334 333 332 332 330 328 327 327 327 326 325 325 324 323 322 322 321
201 201 199 196 191 189 194 208 283 321 332 335 336 337 337 337 337 337 337 336 336 337 338 338 336 334 332 332 331 330 328 326 326 325 325 324 324 324 323 322 322 321
198 195 192 189 188 195 235 305 328 334 336 336 336 336 335 335 335 336 336 336 335 334 334 335 334 333 332 331 330 329 328 326 326 325 324 324 324 324 323 322 322 321
194 191 190 192 203 254 309 323 328 332 334 333 333 333 332 333 333 333 333 332 331 330 330 333 334 333 332 331 330 329 327 326 325 324 323 323 322 322 322 321 321 320
192 192 197 210 255 293 311 321 324 326 327 327 329 329 329 330 331 330 330 330 330 331 330 332 334 334 333 332 331 330 327 326 325 324 323 322 321 321 320 320 320 320
195 202 218 243 278 296 307 316 319 322 324 324 326 327 328 329 329 330 331 332 332 333 331 330 333 334 333 332 331 330 327 326 325 323 322 321 320 319 319 318 318 319
207 220 239 261 286 300 310 317 320 323 325 326 328 329 330 330 330 331 333 333 332 331 330 329 330 332 332 331 330 329 328 326 325 323 321 321 319 317 316 316 316 316
220 236 258 281 301 310 316 321 324 326 329 330 331 331 331 331 331 330 330 331 329 329 329 328 328 329 332 331 329 329 328 326 325 323 321 320 318 316 314 314 314 314
234 256 282 300 312 318 322 326 328 329 331 331 331 331 330 330 329 327 327 327 328 327 328 328 328 329 330 331 329 328 327 325 323 322 320 318 316 315 314 313 312 311